Location: Castelnau
(43.6639°N, 0.8431°W)
Time: 22:16:20
(UTC+00:00)

Cosmos 1666 Rocket - Pass Details

Date: 13 January 2026
Orbit: 598 x 624 km, 82.5° (Epoch: 11 February)

Event Time Altitude Azimuth Distance (km) Brightness Sun altitude
Rises 06:55:05 0° 194° (SSW) 2,844 7.1 -7.3°
Reaches altitude 10° 06:57:18 10° 197° (SSW) 1,949 6.2 -6.9°
Maximum altitude 07:01:35 66° 280° (W) 671 3.5 -6.2°
Drops below altitude 10° 07:05:57 10° 3° (N) 1,982 5.9 -5.5°
Sets 07:08:12 0° 6° (N) 2,896 6.8 -5.1°
